| time (UTC) | temp C | wind direction | speed KPH | gust KPH | rain 1hr cm | rain 24hr cm | rain mn cm | humidity % | barometer mb |
| 20260507181058 | 16 | 19 | 4.8 | 16.1 | 0.00 | 0.03 | 0.00 | 47 | 1007.8 |
| 20260507180535 | 16 | 32 | 8.0 | 20.9 | 0.00 | 0.03 | 0.00 | 46 | 1007.9 |
| 20260507180013 | 16 | 99 | 14.5 | 20.9 | 0.00 | 0.03 | 0.00 | 48 | 1007.8 |
| 20260507175536 | 16 | 44 | 4.8 | 9.7 | 0.00 | 0.03 | 0.00 | 53 | 1007.8 |
| 20260507175004 | 16 | 161 | 0.0 | 20.9 | 0.00 | 0.03 | 0.00 | 47 | 1008.0 |
| 20260507174537 | 16 | 105 | 12.9 | 20.9 | 0.00 | 0.03 | 0.00 | 45 | 1008.1 |
| 20260507174006 | 16 | 159 | 1.6 | 16.1 | 0.00 | 0.03 | 0.00 | 50 | 1008.2 |
| 20260507173538 | 16 | 105 | 6.4 | 16.1 | 0.00 | 0.03 | 0.00 | 46 | 1008.3 |
| 20260507173010 | 16 | 96 | 6.4 | 17.7 | 0.00 | 0.03 | 0.00 | 48 | 1008.4 |
| 20260507172544 | 16 | 22 | 6.4 | 17.7 | 0.00 | 0.03 | 0.00 | 48 | 1008.6 |
| 20260507172018 | 15 | 104 | 6.4 | 17.7 | 0.00 | 0.03 | 0.00 | 50 | 1008.6 |
| 20260507171551 | 15 | 21 | 4.8 | 17.7 | 0.00 | 0.03 | 0.00 | 47 | 1008.7 |
| 20260507171023 | 15 | 38 | 9.7 | 17.7 | 0.00 | 0.03 | 0.00 | 49 | 1008.9 |
| 20260507170554 | 15 | 82 | 3.2 | 12.9 | 0.00 | 0.03 | 0.00 | 49 | 1008.9 |
| 20260507170020 | 15 | 138 | 6.4 | 19.3 | 0.00 | 0.03 | 0.00 | 50 | 1008.9 |
| 20260507165554 | 15 | 138 | 9.7 | 19.3 | 0.00 | 0.03 | 0.00 | 47 | 1009.0 |
| 20260507165033 | 15 | 109 | 4.8 | 19.3 | 0.00 | 0.03 | 0.00 | 46 | 1009.2 |
| 20260507164507 | 15 | 87 | 11.3 | 19.3 | 0.00 | 0.03 | 0.00 | 50 | 1009.3 |
| 20260507164019 | 15 | 102 | 12.9 | 17.7 | 0.00 | 0.03 | 0.00 | 49 | 1009.3 |
| 20260507163552 | 15 | 114 | 8.0 | 24.1 | 0.00 | 0.03 | 0.00 | 51 | 1009.3 |
| 20260507163020 | 15 | 86 | 12.9 | 24.1 | 0.00 | 0.03 | 0.00 | 47 | 1009.4 |
| 20260507162552 | 15 | 152 | 6.4 | 17.7 | 0.00 | 0.03 | 0.00 | 49 | 1009.5 |
| 20260507162023 | 15 | 133 | 6.4 | 29.0 | 0.00 | 0.03 | 0.00 | 52 | 1009.5 |
| 20260507161555 | 15 | 42 | 11.3 | 29.0 | 0.00 | 0.03 | 0.00 | 52 | 1009.5 |
| 20260507161011 | 14 | 121 | 11.3 | 20.9 | 0.00 | 0.03 | 0.00 | 50 | 1009.7 |
| 20260507160542 | 14 | 90 | 8.0 | 17.7 | 0.00 | 0.03 | 0.00 | 51 | 1009.8 |
| 20260507160025 | 14 | 138 | 9.7 | 25.7 | 0.00 | 0.03 | 0.00 | 50 | 1009.8 |
| 20260507155545 | 14 | 86 | 12.9 | 22.5 | 0.00 | 0.03 | 0.00 | 51 | 1009.8 |
| 20260507155017 | 14 | 114 | 14.5 | 22.5 | 0.00 | 0.03 | 0.00 | 51 | 1010.0 |
| 20260507154550 | 14 | 25 | 4.8 | 19.3 | 0.00 | 0.03 | 0.00 | 55 | 1009.9 |
| 20260507154025 | 14 | 142 | 3.2 | 17.7 | 0.00 | 0.03 | 0.00 | 54 | 1010.0 |
| 20260507153553 | 14 | 104 | 8.0 | 17.7 | 0.00 | 0.03 | 0.00 | 56 | 1010.0 |
| 20260507153032 | 13 | 176 | 8.0 | 17.7 | 0.00 | 0.03 | 0.00 | 55 | 1010.0 |
| 20260507152556 | 13 | 202 | 6.4 | 17.7 | 0.00 | 0.03 | 0.00 | 60 | 1010.1 |
| 20260507152014 | 13 | 45 | 6.4 | 17.7 | 0.00 | 0.03 | 0.00 | 53 | 1010.2 |
| 20260507151548 | 13 | 145 | 8.0 | 19.3 | 0.00 | 0.03 | 0.00 | 55 | 1010.2 |
| 20260507151015 | 13 | 79 | 9.7 | 17.7 | 0.00 | 0.03 | 0.00 | 54 | 1010.3 |
| 20260507150550 | 13 | 75 | 8.0 | 25.7 | 0.00 | 0.03 | 0.00 | 57 | 1010.4 |
| 20260507150018 | 13 | 138 | 11.3 | 25.7 | 0.00 | 0.03 | 0.00 | 54 | 1010.5 |
| 20260507145540 | 13 | 48 | 6.4 | 22.5 | 0.00 | 0.03 | 0.00 | 50 | 1010.6 |
| 20260507145014 | 13 | 45 | 11.3 | 20.9 | 0.00 | 0.03 | 0.00 | 53 | 1010.6 |
| 20260507144543 | 12 | 86 | 12.9 | 20.9 | 0.00 | 0.03 | 0.00 | 54 | 1010.6 |
| 20260507144014 | 12 | 58 | 4.8 | 16.1 | 0.00 | 0.03 | 0.00 | 59 | 1010.8 |
| 20260507143549 | 12 | 84 | 6.4 | 12.9 | 0.00 | 0.13 | 0.00 | 58 | 1010.9 |
| 20260507143005 | 12 | 103 | 6.4 | 17.7 | 0.00 | 0.13 | 0.00 | 58 | 1010.6 |
| 20260507142538 | 12 | 81 | 11.3 | 17.7 | 0.00 | 0.13 | 0.00 | 55 | 1010.8 |
| 20260507142009 | 12 | 76 | 6.4 | 14.5 | 0.00 | 0.13 | 0.00 | 57 | 1010.9 |
| 20260507141602 | 12 | 63 | 8.0 | 14.5 | 0.00 | 0.13 | 0.00 | 56 | 1010.9 |
| 20260507141012 | 12 | 61 | 8.0 | 16.1 | 0.00 | 0.13 | 0.00 | 57 | 1011.1 |
| 20260507140545 | 12 | 63 | 6.4 | 16.1 | 0.00 | 0.13 | 0.00 | 56 | 1011.1 |
| 20260507140010 | 12 | 86 | 4.8 | 16.1 | 0.00 | 0.13 | 0.00 | 58 | 1011.2 |
| 20260507135544 | 12 | 69 | 8.0 | 16.1 | 0.00 | 0.13 | 0.00 | 56 | 1011.4 |
| 20260507135011 | 11 | 74 | 8.0 | 12.9 | 0.00 | 0.13 | 0.00 | 56 | 1011.3 |
| 20260507134544 | 11 | 75 | 4.8 | 9.7 | 0.00 | 0.13 | 0.00 | 60 | 1011.4 |
| 20260507134057 | 11 | 94 | 3.2 | 14.5 | 0.00 | 0.13 | 0.00 | 58 | 1011.4 |
| 20260507133533 | 11 | 99 | 8.0 | 17.7 | 0.00 | 0.28 | 0.00 | 58 | 1011.4 |
| 20260507133110 | 11 | 103 | 9.7 | 16.1 | 0.00 | 0.28 | 0.00 | 58 | 1011.4 |
| 20260507133002 | 11 | 69 | 9.7 | 16.1 | 0.00 | 0.28 | 0.00 | 57 | 1011.3 |
| 20260507132535 | 11 | 99 | 9.7 | 16.1 | 0.00 | 0.28 | 0.00 | 61 | 1011.3 |
| 20260507132009 | 11 | 100 | 11.3 | 16.1 | 0.00 | 0.28 | 0.00 | 59 | 1011.4 |
| 20260507131523 | 11 | 113 | 6.4 | 14.5 | 0.00 | 0.28 | 0.00 | 61 | 1011.3 |
| 20260507131054 | 11 | 59 | 4.8 | 12.9 | 0.00 | 0.28 | 0.00 | 62 | 1011.4 |
| 20260507130524 | 11 | 128 | 6.4 | 17.7 | 0.00 | 0.28 | 0.00 | 61 | 1011.4 |
| 20260507130059 | 11 | 62 | 9.7 | 16.1 | 0.00 | 0.28 | 0.00 | 61 | 1011.6 |
| 20260507130001 | 11 | 77 | 8.0 | 16.1 | 0.00 | 0.28 | 0.00 | 61 | 1011.5 |
| 20260507125535 | 11 | 104 | 8.0 | 16.1 | 0.00 | 0.28 | 0.00 | 61 | 1011.6 |
| 20260507125051 | 11 | 133 | 6.4 | 17.7 | 0.00 | 0.28 | 0.00 | 63 | 1011.5 |
| 20260507124521 | 11 | 78 | 6.4 | 17.7 | 0.00 | 0.28 | 0.00 | 62 | 1011.6 |
| 20260507124055 | 11 | 115 | 4.8 | 12.9 | 0.00 | 0.28 | 0.00 | 61 | 1011.5 |
| 20260507123534 | 11 | 117 | 6.4 | 14.5 | 0.00 | 0.43 | 0.00 | 62 | 1011.4 |
| 20260507123103 | 11 | 48 | 3.2 | 14.5 | 0.00 | 0.43 | 0.00 | 63 | 1011.3 |
| 20260507122519 | 11 | 115 | 6.4 | 14.5 | 0.00 | 0.43 | 0.00 | 64 | 1011.2 |
| 20260507122054 | 11 | 71 | 6.4 | 14.5 | 0.00 | 0.43 | 0.00 | 63 | 1011.3 |
| 20260507121521 | 11 | 102 | 4.8 | 12.9 | 0.00 | 0.43 | 0.00 | 63 | 1011.2 |
| 20260507121054 | 11 | 104 | 6.4 | 14.5 | 0.00 | 0.43 | 0.00 | 63 | 1011.2 |
| 20260507120522 | 11 | 79 | 8.0 | 14.5 | 0.00 | 0.43 | 0.00 | 63 | 1011.2 |
| 20260507120055 | 11 | 75 | 1.6 | 6.4 | 0.00 | 0.43 | 0.00 | 66 | 1011.3 |
| 20260507115528 | 11 | 119 | 3.2 | 8.0 | 0.00 | 0.43 | 0.00 | 65 | 1011.3 |
| 20260507115003 | 11 | 84 | 1.6 | 9.7 | 0.00 | 0.43 | 0.00 | 64 | 1011.2 |
| 20260507114536 | 11 | 91 | 1.6 | 9.7 | 0.00 | 0.43 | 0.00 | 63 | 1011.2 |
| 20260507114054 | 11 | 169 | 4.8 | 16.1 | 0.00 | 0.43 | 0.00 | 62 | 1011.1 |
| 20260507113523 | 11 | 133 | 9.7 | 16.1 | 0.00 | 0.51 | 0.43 | 62 | 1011.0 |
| 20260507113055 | 11 | 61 | 1.6 | 14.5 | 0.00 | 0.51 | 0.43 | 63 | 1010.9 |
| 20260507112531 | 11 | 95 | 6.4 | 16.1 | 0.00 | 0.51 | 0.43 | 63 | 1010.8 |
| 20260507112005 | 11 | 94 | 4.8 | 14.5 | 0.00 | 0.51 | 0.43 | 64 | 1010.8 |
| 20260507111539 | 11 | 102 | 4.8 | 14.5 | 0.00 | 0.51 | 0.43 | 64 | 1010.9 |
| 20260507111051 | 11 | 108 | 4.8 | 16.1 | 0.00 | 0.51 | 0.43 | 63 | 1010.8 |
| 20260507110522 | 11 | 89 | 4.8 | 17.7 | 0.00 | 0.51 | 0.43 | 64 | 1010.7 |
| 20260507110055 | 11 | 133 | 6.4 | 17.7 | 0.00 | 0.51 | 0.43 | 64 | 1010.6 |
| 20260507105529 | 11 | 82 | 8.0 | 14.5 | 0.00 | 0.51 | 0.43 | 67 | 1010.8 |
| 20260507105042 | 11 | 110 | 4.8 | 14.5 | 0.00 | 0.51 | 0.43 | 67 | 1010.7 |
| 20260507104517 | 11 | 84 | 6.4 | 12.9 | 0.00 | 0.51 | 0.43 | 68 | 1010.7 |
| 20260507104056 | 11 | 124 | 4.8 | 14.5 | 0.00 | 0.51 | 0.43 | 69 | 1010.6 |
| 20260507103531 | 11 | 67 | 6.4 | 14.5 | 0.00 | 0.51 | 0.43 | 69 | 1010.6 |
| 20260507103056 | 11 | 133 | 6.4 | 14.5 | 0.00 | 0.51 | 0.43 | 70 | 1010.6 |
| 20260507102513 | 11 | 113 | 6.4 | 12.9 | 0.00 | 0.51 | 0.43 | 71 | 1010.6 |
| 20260507102050 | 11 | 104 | 3.2 | 9.7 | 0.00 | 0.51 | 0.43 | 72 | 1010.4 |
| 20260507101517 | 11 | 77 | 3.2 | 9.7 | 0.00 | 0.51 | 0.43 | 73 | 1010.5 |
| 20260507101048 | 12 | 111 | 3.2 | 9.7 | 0.00 | 0.51 | 0.43 | 74 | 1010.2 |
| 20260507100526 | 12 | 92 | 3.2 | 9.7 | 0.00 | 0.51 | 0.43 | 74 | 1010.2 |
| 20260507100059 | 12 | 109 | 3.2 | 9.7 | 0.00 | 0.51 | 0.43 | 73 | 1010.0 |
| 20260507095528 | 12 | 102 | 1.6 | 12.9 | 0.00 | 0.51 | 0.43 | 73 | 1010.2 |
| 20260507095055 | 12 | 99 | 3.2 | 14.5 | 0.00 | 0.51 | 0.43 | 73 | 1010.1 |
| 20260507094523 | 12 | 90 | 4.8 | 8.0 | 0.00 | 0.51 | 0.43 | 72 | 1010.2 |
| 20260507094059 | 12 | 72 | 4.8 | 9.7 | 0.00 | 0.51 | 0.43 | 72 | 1010.1 |
| 20260507093536 | 12 | 61 | 3.2 | 16.1 | 0.00 | 0.51 | 0.43 | 72 | 1010.1 |
| 20260507093045 | 12 | 110 | 9.7 | 16.1 | 0.00 | 0.51 | 0.43 | 72 | 1009.9 |
| 20260507092517 | 12 | 105 | 3.2 | 9.7 | 0.00 | 0.51 | 0.43 | 73 | 1010.1 |
| 20260507092048 | 12 | 88 | 3.2 | 14.5 | 0.00 | 0.51 | 0.43 | 73 | 1009.8 |
| 20260507091533 | 12 | 86 | 3.2 | 14.5 | 0.00 | 0.51 | 0.43 | 72 | 1009.9 |
| 20260507091048 | 12 | 112 | 6.4 | 14.5 | 0.00 | 0.51 | 0.43 | 72 | 1009.5 |
| 20260507090524 | 12 | 116 | 4.8 | 11.3 | 0.00 | 0.51 | 0.43 | 72 | 1009.6 |
| 20260507090059 | 12 | 128 | 3.2 | 12.9 | 0.00 | 0.51 | 0.43 | 72 | 1009.8 |
| 20260507085520 | 12 | 121 | 6.4 | 20.9 | 0.00 | 0.51 | 0.43 | 72 | 1009.8 |
| 20260507085054 | 12 | 104 | 6.4 | 20.9 | 0.00 | 0.51 | 0.43 | 71 | 1009.9 |
| 20260507084514 | 12 | 104 | 6.4 | 16.1 | 0.00 | 0.51 | 0.43 | 71 | 1010.0 |
| 20260507084045 | 12 | 88 | 6.4 | 19.3 | 0.00 | 0.51 | 0.43 | 72 | 1009.7 |
| 20260507083514 | 12 | 69 | 9.7 | 20.9 | 0.00 | 0.51 | 0.43 | 72 | 1009.5 |
| 20260507083045 | 12 | 61 | 11.3 | 20.9 | 0.00 | 0.51 | 0.43 | 72 | 1009.5 |
| 20260507082522 | 12 | 93 | 6.4 | 19.3 | 0.00 | 0.51 | 0.43 | 72 | 1009.5 |
| 20260507082038 | 12 | 108 | 9.7 | 19.3 | 0.00 | 0.51 | 0.43 | 73 | 1009.6 |
| 20260507081508 | 12 | 56 | 4.8 | 11.3 | 0.00 | 0.51 | 0.43 | 73 | 1009.6 |
| 20260507081038 | 12 | 85 | 3.2 | 8.0 | 0.00 | 0.51 | 0.43 | 74 | 1009.6 |
| 20260507080556 | 12 | 95 | 3.2 | 8.0 | 0.00 | 0.51 | 0.43 | 74 | 1009.6 |
| 20260507080012 | 12 | 221 | 3.2 | 14.5 | 0.00 | 0.51 | 0.43 | 74 | 1009.6 |
| 20260507075546 | 12 | 207 | 3.2 | 14.5 | 0.00 | 0.51 | 0.43 | 74 | 1009.3 |
| 20260507075016 | 12 | 181 | 4.8 | 8.0 | 0.00 | 0.51 | 0.43 | 74 | 1009.2 |
| 20260507074551 | 12 | 138 | 1.6 | 8.0 | 0.00 | 0.51 | 0.43 | 75 | 1009.1 |
| 20260507074012 | 12 | 96 | 3.2 | 14.5 | 0.00 | 0.51 | 0.43 | 74 | 1009.0 |
| 20260507073544 | 12 | 153 | 1.6 | 14.5 | 0.00 | 0.51 | 0.43 | 74 | 1009.1 |
| 20260507073010 | 12 | 152 | 1.6 | 14.5 | 0.00 | 0.51 | 0.43 | 73 | 1009.1 |
| 20260507072544 | 12 | 72 | 8.0 | 17.7 | 0.00 | 0.51 | 0.43 | 73 | 1009.1 |
| 20260507072020 | 12 | 138 | 6.4 | 16.1 | 0.00 | 0.51 | 0.43 | 73 | 1009.1 |
| 20260507071552 | 12 | 67 | 6.4 | 16.1 | 0.00 | 0.51 | 0.43 | 74 | 1009.0 |
| 20260507071027 | 12 | 100 | 4.8 | 14.5 | 0.00 | 0.51 | 0.43 | 74 | 1009.0 |
| 20260507070552 | 12 | 80 | 6.4 | 11.3 | 0.00 | 0.51 | 0.43 | 74 | 1009.2 |
| 20260507070023 | 12 | 102 | 3.2 | 16.1 | 0.00 | 0.51 | 0.43 | 74 | 1009.2 |
| 20260507065559 | 12 | 67 | 4.8 | 17.7 | 0.00 | 0.51 | 0.43 | 73 | 1009.1 |
| 20260507065029 | 12 | 84 | 9.7 | 17.7 | 0.00 | 0.51 | 0.43 | 74 | 1009.1 |
| 20260507064634 | 12 | 107 | 9.7 | 24.1 | 0.00 | 0.51 | 0.43 | 74 | 1009.1 |
| 20260507064028 | 12 | 62 | 12.9 | 24.1 | 0.00 | 0.51 | 0.43 | 74 | 1009.1 |
| 20260507063600 | 12 | 98 | 11.3 | 22.5 | 0.00 | 0.51 | 0.43 | 74 | 1009.2 |
| 20260507063502 | 12 | 77 | 9.7 | 22.5 | 0.00 | 0.51 | 0.43 | 75 | 1009.2 |
| 20260507063036 | 12 | 86 | 9.7 | 22.5 | 0.00 | 0.51 | 0.43 | 75 | 1009.4 |
| 20260507062507 | 12 | 71 | 6.4 | 20.9 | 0.00 | 0.51 | 0.43 | 76 | 1009.4 |
| 20260507062018 | 12 | 69 | 11.3 | 20.9 | 0.00 | 0.51 | 0.43 | 76 | 1009.5 |
| 20260507061549 | 12 | 92 | 11.3 | 19.3 | 0.00 | 0.51 | 0.43 | 75 | 1009.5 |
| 20260507061020 | 13 | 71 | 8.0 | 17.7 | 0.00 | 0.51 | 0.43 | 76 | 1009.6 |
| 20260507060550 | 13 | 94 | 9.7 | 17.7 | 0.00 | 0.51 | 0.43 | 76 | 1009.6 |
| 20260507060020 | 13 | 71 | 11.3 | 17.7 | 0.00 | 0.51 | 0.43 | 76 | 1009.5 |
| 20260507055554 | 13 | 74 | 6.4 | 19.3 | 0.00 | 0.51 | 0.43 | 77 | 1009.5 |
| 20260507055028 | 13 | 93 | 8.0 | 17.7 | 0.00 | 0.51 | 0.43 | 77 | 1009.2 |
| 20260507054607 | 13 | 84 | 8.0 | 17.7 | 0.00 | 0.51 | 0.43 | 77 | 1009.4 |
| 20260507054034 | 13 | 104 | 8.0 | 16.1 | 0.00 | 0.51 | 0.43 | 77 | 1009.1 |
| 20260507053506 | 13 | 85 | 4.8 | 17.7 | 0.00 | 0.51 | 0.43 | 77 | 1009.1 |
| 20260507053023 | 13 | 77 | 6.4 | 17.7 | 0.00 | 0.51 | 0.43 | 77 | 1009.3 |
| 20260507052554 | 13 | 116 | 8.0 | 17.7 | 0.00 | 0.51 | 0.43 | 77 | 1009.1 |
| 20260507052032 | 13 | 88 | 6.4 | 20.9 | 0.00 | 0.51 | 0.43 | 77 | 1009.1 |
| 20260507051609 | 13 | 128 | 11.3 | 22.5 | 0.00 | 0.51 | 0.43 | 77 | 1009.2 |
| 20260507051502 | 13 | 124 | 12.9 | 22.5 | 0.00 | 0.51 | 0.43 | 77 | 1009.1 |
| 20260507051019 | 13 | 48 | 9.7 | 22.5 | 0.00 | 0.51 | 0.43 | 77 | 1009.2 |
| 20260507050552 | 13 | 82 | 11.3 | 19.3 | 0.00 | 0.51 | 0.43 | 77 | 1009.2 |
| 20260507050036 | 13 | 77 | 9.7 | 19.3 | 0.00 | 0.51 | 0.43 | 77 | 1009.3 |
| 20260507045032 | 13 | 133 | 4.8 | 19.3 | 0.00 | 0.51 | 0.43 | 77 | 1009.3 |
| 20260507044503 | 13 | 100 | 6.4 | 14.5 | 0.00 | 0.51 | 0.43 | 77 | 1009.3 |
| 20260507044038 | 13 | 113 | 9.7 | 22.5 | 0.00 | 0.51 | 0.43 | 78 | 1009.2 |
| 20260507043508 | 13 | 91 | 6.4 | 22.5 | 0.00 | 0.51 | 0.43 | 79 | 1008.9 |
| 20260507043018 | 13 | 133 | 8.0 | 22.5 | 0.00 | 0.51 | 0.43 | 79 | 1009.3 |
| 20260507042553 | 13 | 102 | 11.3 | 22.5 | 0.00 | 0.51 | 0.43 | 80 | 1009.4 |
| 20260507042021 | 13 | 104 | 8.0 | 16.1 | 0.00 | 0.51 | 0.43 | 80 | 1009.2 |
| 20260507041559 | 13 | 69 | 8.0 | 17.7 | 0.00 | 0.51 | 0.43 | 80 | 1009.2 |
| 20260507041032 | 13 | 63 | 8.0 | 17.7 | 0.00 | 0.51 | 0.43 | 80 | 1009.1 |
| 20260507040600 | 13 | 128 | 3.2 | 16.1 | 0.00 | 0.51 | 0.43 | 80 | 1008.5 |
| 20260507040502 | 13 | 138 | 1.6 | 19.3 | 0.00 | 0.51 | 0.43 | 80 | 1008.5 |
| 20260507040030 | 14 | 128 | 4.8 | 22.5 | 0.00 | 0.51 | 0.43 | 80 | 1008.6 |
| 20260507035551 | 14 | 101 | 12.9 | 25.7 | 0.00 | 0.51 | 0.43 | 79 | 1009.1 |
| 20260507035029 | 14 | 70 | 16.1 | 25.7 | 0.00 | 0.51 | 0.43 | 79 | 1009.4 |
| 20260507034540 | 14 | 73 | 6.4 | 22.5 | 0.00 | 0.51 | 0.43 | 79 | 1009.2 |
| 20260507034009 | 14 | 106 | 11.3 | 22.5 | 0.00 | 0.51 | 0.43 | 79 | 1008.9 |
| 20260507033540 | 15 | 61 | 12.9 | 22.5 | 0.00 | 0.51 | 0.43 | 79 | 1008.7 |
| 20260507033010 | 15 | 89 | 9.7 | 19.3 | 0.00 | 0.51 | 0.43 | 79 | 1008.3 |
| 20260507032545 | 15 | 96 | 8.0 | 16.1 | 0.00 | 0.51 | 0.43 | 79 | 1008.1 |
| 20260507032015 | 15 | 128 | 6.4 | 19.3 | 0.00 | 0.51 | 0.43 | 79 | 1008.1 |
| 20260507031550 | 15 | 83 | 9.7 | 19.3 | 0.00 | 0.51 | 0.43 | 78 | 1008.6 |
| 20260507031022 | 15 | 86 | 9.7 | 17.7 | 0.00 | 0.51 | 0.43 | 77 | 1008.2 |
| 20260507030555 | 15 | 54 | 6.4 | 20.9 | 0.00 | 0.51 | 0.43 | 77 | 1008.6 |
| 20260507030035 | 15 | 73 | 9.7 | 24.1 | 0.00 | 0.51 | 0.43 | 77 | 1008.6 |
| 20260507025545 | 15 | 84 | 9.7 | 24.1 | 0.00 | 0.51 | 0.43 | 79 | 1008.5 |
| 20260507025017 | 15 | 86 | 8.0 | 16.1 | 0.00 | 0.51 | 0.43 | 79 | 1008.4 |
| 20260507024551 | 16 | 90 | 8.0 | 17.7 | 0.00 | 0.51 | 0.43 | 79 | 1008.5 |
| 20260507024024 | 16 | 115 | 9.7 | 19.3 | 0.00 | 0.51 | 0.43 | 80 | 1008.2 |
| 20260507023543 | 16 | 128 | 8.0 | 19.3 | 0.00 | 0.51 | 0.43 | 79 | 1007.9 |
| 20260507023011 | 16 | 146 | 6.4 | 16.1 | 0.00 | 0.51 | 0.43 | 79 | 1007.7 |
| 20260507022543 | 16 | 69 | 6.4 | 14.5 | 0.00 | 0.51 | 0.43 | 79 | 1007.8 |
| 20260507022016 | 16 | 113 | 4.8 | 14.5 | 0.00 | 0.51 | 0.43 | 78 | 1008.1 |
| 20260507021547 | 16 | 91 | 4.8 | 16.1 | 0.00 | 0.51 | 0.43 | 77 | 1008.2 |
| 20260507021003 | 16 | 104 | 8.0 | 24.1 | 0.00 | 0.51 | 0.43 | 76 | 1007.8 |
| 20260507020540 | 16 | 128 | 9.7 | 24.1 | 0.00 | 0.51 | 0.43 | 76 | 1007.8 |
| 20260507020011 | 16 | 86 | 11.3 | 19.3 | 0.00 | 0.51 | 0.43 | 77 | 1007.9 |
| 20260507015547 | 16 | 90 | 9.7 | 19.3 | 0.00 | 0.51 | 0.43 | 76 | 1007.8 |
| 20260507015017 | 16 | 79 | 11.3 | 19.3 | 0.00 | 0.51 | 0.43 | 76 | 1007.8 |
| 20260507014556 | 16 | 97 | 11.3 | 22.5 | 0.00 | 0.51 | 0.43 | 76 | 1007.7 |
| 20260507014017 | 16 | 33 | 12.9 | 22.5 | 0.00 | 0.51 | 0.43 | 75 | 1007.8 |
| 20260507013549 | 16 | 84 | 9.7 | 16.1 | 0.00 | 0.51 | 0.43 | 76 | 1007.7 |
| 20260507013021 | 17 | 72 | 9.7 | 19.3 | 0.00 | 0.51 | 0.43 | 76 | 1007.7 |
| 20260507012553 | 17 | 94 | 9.7 | 19.3 | 0.00 | 0.51 | 0.43 | 76 | 1007.5 |
| 20260507012026 | 17 | 103 | 8.0 | 17.7 | 0.00 | 0.51 | 0.43 | 76 | 1007.7 |
| 20260507011559 | 17 | 64 | 9.7 | 17.7 | 0.00 | 0.51 | 0.43 | 77 | 1007.6 |
| 20260507011501 | 17 | 69 | 8.0 | 17.7 | 0.00 | 0.51 | 0.43 | 77 | 1007.6 |
| 20260507011029 | 17 | 75 | 8.0 | 17.7 | 0.00 | 0.51 | 0.43 | 80 | 1007.8 |
| 20260507010507 | 17 | 59 | 8.0 | 19.3 | 0.00 | 0.51 | 0.43 | 80 | 1007.7 |
| 20260507010057 | 17 | 69 | 11.3 | 20.9 | 0.00 | 0.51 | 0.43 | 80 | 1007.7 |
| 20260507005509 | 17 | 106 | 11.3 | 17.7 | 0.00 | 0.51 | 0.43 | 80 | 1007.5 |
| 20260507005045 | 17 | 73 | 11.3 | 17.7 | 0.00 | 0.51 | 0.43 | 80 | 1007.8 |
| 20260507004520 | 17 | 78 | 11.3 | 22.5 | 0.00 | 0.51 | 0.43 | 80 | 1007.8 |
| 20260507004049 | 17 | 106 | 11.3 | 22.5 | 0.00 | 0.51 | 0.43 | 81 | 1007.7 |
| 20260507003524 | 17 | 108 | 6.4 | 19.3 | 0.00 | 0.51 | 0.43 | 81 | 1007.5 |
| 20260507003057 | 17 | 66 | 11.3 | 20.9 | 0.00 | 0.51 | 0.43 | 81 | 1007.5 |
| 20260507003001 | 17 | 101 | 9.7 | 20.9 | 0.00 | 0.51 | 0.43 | 81 | 1007.6 |
| 20260507002529 | 17 | 100 | 9.7 | 17.7 | 0.00 | 0.51 | 0.43 | 81 | 1007.6 |
| 20260507002059 | 18 | 117 | 8.0 | 17.7 | 0.00 | 0.51 | 0.43 | 81 | 1007.4 |
| 20260507002001 | 18 | 122 | 6.4 | 17.7 | 0.00 | 0.51 | 0.43 | 82 | 1007.4 |
| 20260507001534 | 18 | 83 | 11.3 | 17.7 | 0.00 | 0.51 | 0.43 | 83 | 1007.8 |
| 20260507001004 | 18 | 79 | 4.8 | 12.9 | 0.00 | 0.51 | 0.43 | 84 | 1007.7 |
| 20260507000519 | 18 | 82 | 8.0 | 16.1 | 0.00 | 0.51 | 0.43 | 83 | 1007.4 |
| 20260507000049 | 18 | 68 | 4.8 | 16.1 | 0.00 | 0.51 | 0.43 | 84 | 1007.3 |
| 20260506235521 | 18 | 65 | 6.4 | 12.9 | 0.00 | 0.51 | 0.43 | 85 | 1007.2 |
| 20260506235055 | 18 | 102 | 3.2 | 12.9 | 0.00 | 0.51 | 0.43 | 85 | 1007.2 |
| 20260506234527 | 18 | 98 | 6.4 | 11.3 | 0.03 | 0.51 | 0.43 | 86 | 1007.3 |
| 20260506234057 | 18 | 27 | 4.8 | 12.9 | 0.03 | 0.51 | 0.43 | 85 | 1007.0 |
| 20260506233527 | 18 | 88 | 8.0 | 14.5 | 0.03 | 0.51 | 0.43 | 85 | 1006.9 |
| 20260506233100 | 18 | 65 | 6.4 | 19.3 | 0.03 | 0.51 | 0.43 | 86 | 1006.8 |
| 20260506233000 | 18 | 117 | 6.4 | 19.3 | 0.03 | 0.51 | 0.43 | 86 | 1006.7 |
| 20260506232532 | 18 | 82 | 9.7 | 19.3 | 0.03 | 0.51 | 0.43 | 87 | 1006.5 |
| 20260506232005 | 18 | 68 | 8.0 | 14.5 | 0.03 | 0.51 | 0.43 | 90 | 1006.3 |
| 20260506231557 | 18 | 23 | 4.8 | 8.0 | 0.03 | 0.51 | 0.43 | 91 | 1006.4 |
| 20260506231010 | 18 | 304 | 0.0 | 4.8 | 0.03 | 0.51 | 0.43 | 90 | 1006.3 |
| 20260506230541 | 18 | 304 | 0.0 | 4.8 | 0.03 | 0.51 | 0.43 | 90 | 1006.2 |
| 20260506230111 | 19 | 248 | 0.0 | 3.2 | 0.03 | 0.51 | 0.43 | 89 | 1006.0 |
| 20260506225528 | 19 | 313 | 0.0 | 0.0 | 0.03 | 0.51 | 0.43 | 89 | 1006.1 |
| 20260506225003 | 19 | 313 | 0.0 | 3.2 | 0.00 | 0.48 | 0.43 | 88 | 1006.1 |
| 20260506224539 | 19 | 313 | 0.0 | 3.2 | 0.00 | 0.48 | 0.41 | 87 | 1006.2 |
| 20260506224006 | 20 | 313 | 0.0 | 1.6 | 0.00 | 0.48 | 0.41 | 84 | 1006.1 |
| 20260506223543 | 20 | 313 | 0.0 | 4.8 | 0.00 | 0.48 | 0.41 | 84 | 1006.1 |
| 20260506223010 | 20 | 313 | 1.6 | 4.8 | 0.00 | 0.48 | 0.41 | 83 | 1006.0 |
| 20260506222543 | 20 | 277 | 1.6 | 8.0 | 0.00 | 0.48 | 0.41 | 83 | 1006.0 |
| 20260506222014 | 20 | 318 | 1.6 | 8.0 | 0.00 | 0.48 | 0.41 | 82 | 1006.0 |
| 20260506221607 | 20 | 300 | 1.6 | 4.8 | 0.00 | 0.48 | 0.41 | 82 | 1006.0 |
| 20260506221025 | 20 | 305 | 0.0 | 6.4 | 0.00 | 0.48 | 0.41 | 82 | 1006.0 |
| 20260506220554 | 20 | 290 | 0.0 | 8.0 | 0.00 | 0.48 | 0.41 | 82 | 1006.0 |
| 20260506220033 | 20 | 148 | 3.2 | 14.5 | 0.00 | 0.48 | 0.41 | 81 | 1005.9 |
| 20260506215554 | 20 | 305 | 3.2 | 14.5 | 0.00 | 0.48 | 0.41 | 81 | 1006.0 |
| 20260506215034 | 20 | 267 | 4.8 | 12.9 | 0.00 | 0.48 | 0.41 | 80 | 1005.9 |
| 20260506214503 | 20 | 249 | 0.0 | 12.9 | 0.00 | 0.48 | 0.41 | 80 | 1005.8 |
| 20260506214037 | 20 | 346 | 4.8 | 11.3 | 0.00 | 0.48 | 0.41 | 81 | 1005.7 |
| 20260506213552 | 20 | 42 | 3.2 | 9.7 | 0.00 | 0.48 | 0.41 | 81 | 1005.8 |
| 20260506213024 | 20 | 294 | 3.2 | 9.7 | 0.00 | 0.48 | 0.41 | 80 | 1005.7 |
| 20260506212557 | 20 | 275 | 0.0 | 9.7 | 0.00 | 0.48 | 0.41 | 81 | 1005.7 |
| 20260506212033 | 20 | 56 | 3.2 | 14.5 | 0.00 | 0.48 | 0.41 | 80 | 1005.6 |
| 20260506211506 | 20 | 41 | 4.8 | 14.5 | 0.00 | 0.48 | 0.41 | 80 | 1005.6 |
| 20260506211024 | 20 | 297 | 3.2 | 16.1 | 0.00 | 0.48 | 0.41 | 80 | 1005.5 |
| 20260506210559 | 20 | 304 | 6.4 | 16.1 | 0.00 | 0.48 | 0.41 | 80 | 1005.4 |
| 20260506210035 | 20 | 289 | 3.2 | 17.7 | 0.00 | 0.48 | 0.41 | 81 | 1005.3 |
| 20260506205504 | 20 | 317 | 6.4 | 17.7 | 0.00 | 0.48 | 0.41 | 81 | 1005.1 |
| 20260506205025 | 20 | 315 | 1.6 | 16.1 | 0.00 | 0.48 | 0.41 | 81 | 1005.2 |
| 20260506204540 | 20 | 259 | 6.4 | 14.5 | 0.00 | 0.48 | 0.41 | 81 | 1005.2 |
| 20260506204013 | 20 | 283 | 6.4 | 12.9 | 0.00 | 0.48 | 0.41 | 80 | 1005.1 |
| 20260506203548 | 20 | 313 | 4.8 | 19.3 | 0.00 | 0.48 | 0.41 | 79 | 1005.1 |
| 20260506203020 | 20 | 244 | 6.4 | 22.5 | 0.00 | 0.48 | 0.41 | 78 | 1005.1 |
| 20260506202534 | 21 | 9 | 4.8 | 22.5 | 0.00 | 0.48 | 0.41 | 79 | 1005.1 |
| 20260506202009 | 20 | 296 | 8.0 | 20.9 | 0.00 | 0.48 | 0.41 | 79 | 1004.9 |
| 20260506201546 | 20 | 84 | 8.0 | 20.9 | 0.00 | 0.48 | 0.41 | 79 | 1005.1 |
| 20260506201014 | 20 | 358 | 6.4 | 16.1 | 0.00 | 0.48 | 0.41 | 80 | 1005.2 |
| 20260506200548 | 20 | 313 | 11.3 | 19.3 | 0.00 | 0.48 | 0.41 | 79 | 1005.4 |
| 20260506200020 | 20 | 298 | 6.4 | 16.1 | 0.00 | 0.48 | 0.41 | 79 | 1005.2 |
| 20260506195557 | 20 | 308 | 6.4 | 16.1 | 0.00 | 0.48 | 0.41 | 81 | 1005.2 |
| 20260506195020 | 20 | 325 | 8.0 | 17.7 | 0.00 | 0.48 | 0.41 | 80 | 1005.2 |
| 20260506194554 | 20 | 290 | 4.8 | 16.1 | 0.00 | 0.48 | 0.41 | 81 | 1005.3 |
| 20260506194027 | 20 | 288 | 6.4 | 19.3 | 0.00 | 0.48 | 0.41 | 81 | 1005.4 |
| 20260506193554 | 20 | 289 | 8.0 | 19.3 | 0.00 | 0.48 | 0.41 | 82 | 1005.1 |
| 20260506193030 | 19 | 271 | 3.2 | 16.1 | 0.00 | 0.48 | 0.41 | 82 | 1005.3 |
| 20260506192504 | 19 | 246 | 1.6 | 9.7 | 0.00 | 0.48 | 0.41 | 82 | 1005.4 |
| 20260506192039 | 19 | 315 | 4.8 | 16.1 | 0.00 | 0.48 | 0.41 | 81 | 1005.4 |
| 20260506191513 | 19 | 290 | 4.8 | 19.3 | 0.00 | 0.48 | 0.41 | 81 | 1005.4 |
| 20260506191042 | 19 | 289 | 8.0 | 17.7 | 0.00 | 0.48 | 0.41 | 81 | 1005.6 |
| 20260506190510 | 19 | 285 | 6.4 | 19.3 | 0.00 | 0.48 | 0.41 | 81 | 1005.6 |
| 20260506190044 | 19 | 273 | 4.8 | 17.7 | 0.00 | 0.48 | 0.41 | 81 | 1005.6 |
| 20260506185516 | 19 | 217 | 3.2 | 25.7 | 0.00 | 0.48 | 0.41 | 81 | 1005.6 |
| 20260506185048 | 19 | 304 | 9.7 | 25.7 | 0.00 | 0.48 | 0.41 | 81 | 1005.5 |
| 20260506184521 | 19 | 329 | 6.4 | 27.4 | 0.00 | 0.48 | 0.41 | 82 | 1005.6 |
| 20260506184053 | 19 | 232 | 11.3 | 27.4 | 0.00 | 0.48 | 0.41 | 81 | 1005.5 |
| 20260506183506 | 20 | 313 | 6.4 | 25.7 | 0.00 | 0.48 | 0.41 | 81 | 1005.4 |
| 20260506183040 | 19 | 259 | 11.3 | 25.7 | 0.00 | 0.48 | 0.41 | 80 | 1005.5 |
| 20260506182510 | 19 | 250 | 8.0 | 19.3 | 0.00 | 0.48 | 0.41 | 82 | 1005.5 |
| 20260506182042 | 19 | 273 | 8.0 | 20.9 | 0.00 | 0.48 | 0.41 | 82 | 1005.7 |
| 20260506181512 | 19 | 291 | 8.0 | 27.4 | 0.00 | 0.48 | 0.41 | 81 | 1005.8 |